Location: Avery Terrace
(41.7312°N, 81.2418°W)
Time: 13:05:40
(UTC+00:00)

Daily predictions for brighter satellites

Satellite Brightness Start Highest point End
(mag) Time Altitude Azimuth Time Altitude Azimuth Time Altitude Azimuth
Cosmos 1703 3.2 12:01:40 10° NNW 12:05:32 70° W 12:09:24 10° S
ERS-2 4.2 12:05:17 10° WSW 12:06:05 11° W 12:06:54 10° W
GPS 2-04 Rocket1 4.4 12:02:35 10° WSW 12:06:08 27° SSW 12:09:39 10° SE
SJ 16-02 3.1 12:05:10 10° WNW 12:07:17 14° W 12:09:31 10° SW
Cosmos 540 Rocket 3.5 12:02:30 10° SW 12:07:30 56° WNW 12:12:34 10° NNE
Meteor 1-16 Rocket 4.4 12:01:55 10° SSW 12:07:41 61° WNW 12:13:34 10° N
ATLAS CENTAUR R/B 3.9 12:07:02 10° S 12:10:06 24° ESE 12:13:06 10° ENE
Cosmos 921 Rocket 4.0 12:07:40 10° WSW 12:11:09 24° WNW 12:14:37 10° N
Spot 2 4.4 12:08:15 10° N 12:12:02 38° WNW 12:15:46 10° SW
Cosmos 1544 Rocket 4.4 12:11:15 10° SW 12:14:57 27° WNW 12:18:40 10° NNW
Cosmos 1400 Rocket 2.9 12:12:19 10° SSW 12:16:17 55° WNW 12:20:20 10° N
Cosmos 1898 Rocket 4.3 12:13:17 10° NW 12:17:46 30° W 12:22:14 10° SSW
Cosmos 1461 3.6 12:15:03 10° WSW 12:19:28 40° NW 12:23:59 10° NNE
Cosmos 2098 Rocket 4.2 12:14:00 10° N 12:20:41 75° E 12:26:04 10° SSE
Cosmos 1570 Rocket 4.1 12:15:47 10° SW 12:20:53 56° WNW 12:26:04 10° NNE
CZ-2C R/B 4.0 22:47:49 10° ESE 22:52:06 26° ENE 22:56:33 10° N
MOS 1 Rocket 4.3 22:53:53 10° NE 22:57:18 22° E 23:00:40 10° SE
Cosmos 1315 Rocket 3.5 22:54:45 10° N 22:58:22 33° ENE 23:01:59 10° SE
Cosmos 2228 3.6 22:56:21 10° N 23:00:15 34° ENE 23:04:08 10° SE
ATLAS 5 CENTAUR R/B 1.4 22:56:46 10° SSW 23:00:39 70° ESE 23:04:58 10° NE
SMAP 3.3 22:56:57 10° S 23:01:37 77° WSW 23:06:17 10° NNW
ATLAS 3B R/B 2.8 22:54:39 10° NNW 23:01:38 70° NE 23:08:53 10° SE
Cosmos 1300 3.1 23:00:55 10° N 23:04:32 39° ENE 23:08:06 10° SSE
GENESIS II 4.3 23:03:23 10° SSW 23:07:20 62° ESE 23:11:19 10° NE
Cosmos 1503 Rocket 4.1 23:02:00 10° SSW 23:07:21 88° ESE 23:12:45 10° NNE
BREEZE-M DEB (TANK) 3.9 23:06:14 10° WNW 23:08:11 18° NNW 23:09:50 10° NE
H-2A R/B 3.1 23:08:17 10° ESE 23:12:03 22° ENE 23:15:52 10° NNE
NOAA 11 4.3 23:08:14 10° SSE 23:13:44 83° WSW 23:19:16 10° NNW
Feng Yun 1-1 Rocket 4.3 23:08:39 10° SE 23:13:52 53° ENE 23:19:12 10° N
Cosmos 2263 Rocket 2.2 23:08:51 10° SSW 23:14:32 90° S 23:20:15 10° NNE
Helios 1A Rocket 4.3 23:15:46 10° ESE 23:18:40 19° ENE 23:21:34 10° NNE
SL-16 R/B 4.4 23:15:30 10° NW 23:20:21 30° WSW 23:25:11 10° SSW
Meteor 1-24 Rocket 3.5 23:15:54 10° S 23:21:16 69° E 23:26:33 10° NNE
X-37B 3.0 23:22:34 10° SSE 23:23:44 12° SE 23:24:48 10° ESE
Cosmos 1726 Rocket 3.8 23:20:11 10° N 23:24:22 44° ENE 23:28:33 10° SSE
CZ-4B R/B 1.3 23:26:49 10° NNE 23:30:15 88° W 23:33:35 10° SSW
DELTA 2 R/B (1) 4.2 23:25:11 10° W 23:30:37 55° SSW 23:36:02 10° ESE
Okean-O 3.2 23:27:45 10° SE 23:31:44 34° ENE 23:35:45 10° N
Lacrosse 5 3.3 23:29:44 10° NNW 23:33:32 21° NNE 23:35:21 17° NE
ERS-2 2.3 23:30:22 10° NNE 23:33:54 48° E 23:37:25 10° S
Cosmos 1943 3.1 23:28:32 10° NNW 23:34:15 83° ENE 23:39:53 10° SSE
RESURS DK-1 3.8 23:30:59 10° SW 23:34:49 36° WNW 23:38:40 10° N
ARGOS 3.9 23:32:48 10° ESE 23:37:17 28° ENE 23:41:48 10° N
COSMO-SKYMED 1 2.5 23:33:25 10° NNE 23:37:47 88° ESE 23:42:08 10° SSW
Cosmos 773 Rocket 3.9 23:34:30 10° NNW 23:39:39 65° ENE 23:44:44 10° SSE
Okean O Rocket 3.2 23:35:33 10° SSW 23:39:43 39° W 23:43:54 10° NNW
CZ-2D R/B 3.3 23:43:58 10° S 23:47:49 84° WSW 23:51:42 10° NNW
CZ-2C R/B 3.7 23:47:38 24° ENE 23:48:37 25° E 23:53:10 10° SSE
Cosmos 2279 Rocket 4.1 23:44:54 10° N 23:51:12 84° W 23:57:27 10° S
